Galveston, TX

7:39 PM CDT on May 28, 2017 (GMT -0500)
Scholes International At Galveston

Weather History for KGLS - May, 2012

Change the Weather History Date:

Sunday, May 27, 2012

  Actual Average Record
Temperature  
Mean Temperature 83 °F 80 °F  
Max Temperature 87 °F 86 °F 90 °F (1922)
Min Temperature 79 °F 75 °F 57 °F (1961)
Degree Days  
Heating Degree Days 0 0  
Month to date heating degree days 0 0  
Since 1 July heating degree days 630 1009  
Cooling Degree Days 18 15  
Month to date cooling degree days 402 331  
Year to date cooling degree days 956 574  
Growing Degree Days 33 (Base 50)    
Moisture  
Dew Point 74 °F    
Average Humidity 75    
Maximum Humidity 85    
Minimum Humidity 65    
Precipitation  
Precipitation 0.00 in 0.24 in 5.24 in (1874)
Month to date precipitation 3.54 3.50  
Year to date precipitation 20.82 16.48  
Snow  
Snow 0.00 in - - ()
Month to date snowfall 0.0  
Since 1 July snowfall 0.0 0.0  
Snow Depth 0.00 in    
Sea Level Pressure  
Sea Level Pressure 29.97 in    
Wind  
Wind Speed 11 mph (SSE)    
Max Wind Speed 16 mph    
Max Gust Speed 20 mph    
Visibility 10 miles    
Events      
T = Trace of Precipitation, MM = Missing Value Source: NWS Daily Summary

Daily Weather History Graph

Daily Weather History Graph

Search for Another Location

Airport or City:

Trip Planner

Search our weather history database for the weather conditions in past years. The results will help you decide how hot, cold, wet, or windy it might be!

Date:

Astronomy

May. 27, 2012 Rise Set
Actual Time 6:21 AM CDT 8:11 PM CDT
Civil Twilight 5:55 AM CDT 8:38 PM CDT
Nautical Twilight 5:23 AM CDT 9:10 PM CDT
Astronomical Twilight 4:49 AM CDT 9:44 PM CDT
Moon 12:11 PM CDT (5/27) 12:33 AM CDT (5/27)
Length of Visible Light 14h 43m
Length of Day
13h 50m
Waxing Crescent, 38% of the Moon is Illuminated
May 27
Waxing Crescent
May 28
First Quarter
Jun 4
Full
Jun 11
Last Quarter
Jun 19
New

Hourly Weather History & Observations

Time (CDT) Temp. Heat Index Dew Point Humidity Pressure Visibility Wind Dir Wind Speed Gust Speed Precip Events Conditions
12:52 AM 79.0 °F - 73.0 °F 82% 29.99 in 10.0 mi SE 13.8 mph - N/A   Clear
1:52 AM 79.0 °F - 73.0 °F 82% 29.98 in 10.0 mi SSE 12.7 mph - N/A   Scattered Clouds
2:52 AM 79.0 °F - 73.0 °F 82% 29.99 in 10.0 mi SSE 13.8 mph - N/A   Scattered Clouds
3:52 AM 79.0 °F - 73.0 °F 82% 29.97 in 10.0 mi SSE 11.5 mph - N/A   Clear
4:52 AM 79.0 °F - 73.0 °F 82% 29.98 in 10.0 mi SE 9.2 mph - N/A   Partly Cloudy
5:52 AM 79.0 °F - 73.0 °F 82% 29.97 in 10.0 mi SSE 10.4 mph - N/A   Partly Cloudy
6:52 AM 79.0 °F - 73.9 °F 84% 29.99 in 10.0 mi SE 10.4 mph - N/A   Mostly Cloudy
7:52 AM 82.0 °F 88.6 °F 75.0 °F 79% 30.00 in 10.0 mi SE 12.7 mph - N/A   Scattered Clouds
8:52 AM 82.9 °F 89.4 °F 73.9 °F 74% 30.01 in 10.0 mi SE 13.8 mph - N/A   Partly Cloudy
9:52 AM 84.0 °F 91.9 °F 75.0 °F 74% 30.01 in 10.0 mi South 9.2 mph - N/A   Partly Cloudy
10:52 AM 84.0 °F 91.2 °F 73.9 °F 72% 30.01 in 10.0 mi South 10.4 mph - N/A   Scattered Clouds
11:52 AM 84.9 °F 92.1 °F 73.9 °F 69% 30.01 in 10.0 mi SSE 11.5 mph - N/A   Scattered Clouds
12:52 PM 86.0 °F 93.8 °F 73.9 °F 67% 30.00 in 10.0 mi SE 12.7 mph - N/A   Clear
1:52 PM 87.1 °F 96.3 °F 75.0 °F 67% 29.98 in 10.0 mi SE 11.5 mph - N/A   Scattered Clouds
2:52 PM 86.0 °F 93.8 °F 73.9 °F 67% 29.96 in 10.0 mi SSE 13.8 mph - N/A   Scattered Clouds
3:52 PM 84.9 °F 92.1 °F 73.9 °F 69% 29.95 in 10.0 mi SE 12.7 mph - N/A   Mostly Cloudy
4:52 PM 84.9 °F 92.1 °F 73.9 °F 69% 29.95 in 10.0 mi SE 12.7 mph - N/A   Mostly Cloudy
5:52 PM 84.0 °F 91.2 °F 73.9 °F 72% 29.94 in 10.0 mi SE 11.5 mph - N/A   Mostly Cloudy
5:59 PM 84.2 °F 90.9 °F 73.4 °F 70% 29.93 in 10.0 mi SE 11.5 mph - N/A   Partly Cloudy
6:52 PM 82.9 °F 88.8 °F 73.0 °F 72% 29.93 in 10.0 mi SE 9.2 mph - N/A   Clear
7:52 PM 81.0 °F 86.2 °F 73.9 °F 79% 29.93 in 10.0 mi SSE 10.4 mph - N/A   Partly Cloudy
8:52 PM 80.1 °F 84.2 °F 73.0 °F 79% 29.94 in 10.0 mi SE 8.1 mph - N/A   Partly Cloudy
9:52 PM 80.1 °F 84.2 °F 73.0 °F 79% 29.94 in 10.0 mi SE 10.4 mph - N/A   Partly Cloudy
10:52 PM 80.1 °F 84.2 °F 73.0 °F 79% 29.95 in 10.0 mi SE 11.5 mph - N/A   Scattered Clouds
11:52 PM 80.1 °F 84.2 °F 73.0 °F 79% 29.94 in 10.0 mi SE 11.5 mph - N/A   Partly Cloudy